NSZ4127 EKYT-EKCH

Flight info

Callsign NSZ4127
Flight time 0h 29m
Altitude 19000
Route AAL M725 ADSEN DCT TNO
Aircraft B738/M-SDE2E3FGHIRWXY/LB1

Departure

Time 2026-04-26 11:55
Airport Aalborg Airport (EKYT)

Arrival

Time 2026-04-26 12:24
Airport Copenhagen Kastrup Airport (EKCH)
Time Latitude Longitude Altitude Speed Heading
2026-04-26 11:37 57.08707 9.86975 18 ft 0 kts 55°
2026-04-26 11:46 57.08705 9.86970 18 ft 2 kts 54°
2026-04-26 11:46 57.08693 9.86945 22 ft 3 kts 38°
2026-04-26 11:47 57.08678 9.86923 18 ft 2 kts 45°
2026-04-26 11:47 57.08665 9.86903 19 ft 3 kts 20°
2026-04-26 11:47 57.08649 9.86899 18 ft 3 kts 332°
2026-04-26 11:47 57.08634 9.86919 22 ft 2 kts 315°
2026-04-26 11:48 57.08629 9.86929 22 ft 0 kts 315°
2026-04-26 11:50 57.08638 9.86912 18 ft 7 kts 315°
2026-04-26 11:50 57.08697 9.86812 18 ft 14 kts 318°
2026-04-26 11:51 57.08777 9.86687 18 ft 16 kts 322°
2026-04-26 11:51 57.08894 9.86519 18 ft 26 kts 322°
2026-04-26 11:51 57.09042 9.86307 18 ft 27 kts 322°
2026-04-26 11:51 57.09185 9.86106 18 ft 24 kts 323°
2026-04-26 11:52 57.09277 9.85978 18 ft 12 kts 322°
2026-04-26 11:52 57.09346 9.85960 18 ft 11 kts 59°
2026-04-26 11:52 57.09361 9.86148 18 ft 19 kts 83°
2026-04-26 11:52 57.09381 9.86442 18 ft 27 kts 83°
2026-04-26 11:53 57.09406 9.86833 18 ft 33 kts 83°
2026-04-26 11:53 57.09432 9.87245 18 ft 32 kts 83°
2026-04-26 11:53 57.09454 9.87579 18 ft 19 kts 83°
2026-04-26 11:54 57.09499 9.87720 18 ft 5 kts 22°
2026-04-26 11:54 57.09555 9.87744 18 ft 12 kts 342°
2026-04-26 11:54 57.09641 9.87639 18 ft 18 kts 297°
2026-04-26 11:54 57.09620 9.87184 18 ft 71 kts 263°
2026-04-26 11:55 57.09527 9.85793 22 ft 144 kts 262°
2026-04-26 11:55 57.09393 9.83808 682 ft 158 kts 263°
2026-04-26 11:55 57.09273 9.81831 1574 ft 164 kts 264°
2026-04-26 11:55 57.09138 9.79590 1998 ft 192 kts 264°
2026-04-26 11:56 57.08757 9.77036 1992 ft 223 kts 237°
2026-04-26 11:56 57.07521 9.75427 2003 ft 231 kts 190°
2026-04-26 11:56 57.05941 9.75883 1994 ft 234 kts 155°
2026-04-26 11:56 57.04533 9.77442 2025 ft 239 kts 146°
2026-04-26 11:57 57.03173 9.79247 2080 ft 240 kts 144°
2026-04-26 11:57 57.01840 9.81117 2655 ft 241 kts 144°
2026-04-26 11:57 57.00518 9.82998 3413 ft 242 kts 144°
2026-04-26 11:57 56.99141 9.84939 3858 ft 258 kts 144°
2026-04-26 11:58 56.97686 9.86948 4640 ft 263 kts 145°
2026-04-26 11:58 56.96220 9.88935 5609 ft 265 kts 145°
2026-04-26 11:58 56.94728 9.90950 6364 ft 275 kts 145°
2026-04-26 11:58 56.93160 9.93064 7129 ft 283 kts 144°
2026-04-26 11:59 56.91532 9.95260 7877 ft 291 kts 144°
2026-04-26 11:59 56.89898 9.97462 8607 ft 299 kts 144°
2026-04-26 11:59 56.88201 9.99752 9351 ft 307 kts 144°
2026-04-26 11:59 56.86463 10.02095 10103 ft 315 kts 143°
2026-04-26 12:00 56.84680 10.04496 10694 ft 327 kts 144°
2026-04-26 12:00 56.82774 10.07060 10887 ft 352 kts 144°
2026-04-26 12:00 56.80742 10.09791 11255 ft 369 kts 144°
2026-04-26 12:00 56.78674 10.12566 11902 ft 376 kts 144°
2026-04-26 12:01 56.76545 10.15418 12677 ft 380 kts 144°
2026-04-26 12:01 56.74402 10.18287 13464 ft 385 kts 144°
2026-04-26 12:01 56.72225 10.21196 14222 ft 390 kts 144°
2026-04-26 12:01 56.70014 10.24146 14924 ft 395 kts 144°
2026-04-26 12:02 56.67783 10.27118 15651 ft 400 kts 144°
2026-04-26 12:02 56.65526 10.30121 16412 ft 404 kts 145°
2026-04-26 12:02 56.63243 10.33152 17125 ft 409 kts 145°
2026-04-26 12:02 56.60955 10.36186 17817 ft 414 kts 146°
2026-04-26 12:03 56.58626 10.39269 18594 ft 416 kts 146°
2026-04-26 12:03 56.56276 10.42377 19090 ft 418 kts 146°
2026-04-26 12:03 56.53923 10.45485 19318 ft 416 kts 146°
2026-04-26 12:03 56.51580 10.48573 19318 ft 416 kts 146°
2026-04-26 12:04 56.49242 10.51651 19322 ft 414 kts 146°
2026-04-26 12:04 56.46938 10.54679 19325 ft 414 kts 146°
2026-04-26 12:04 56.44608 10.57736 19326 ft 414 kts 146°
2026-04-26 12:04 56.42273 10.60794 19325 ft 414 kts 146°
2026-04-26 12:05 56.39976 10.63945 19316 ft 415 kts 139°
2026-04-26 12:05 56.37909 10.67574 19304 ft 415 kts 135°
2026-04-26 12:05 56.35888 10.71288 19312 ft 414 kts 135°
2026-04-26 12:05 56.33875 10.75005 19319 ft 414 kts 135°
2026-04-26 12:06 56.31862 10.78725 19319 ft 413 kts 135°
2026-04-26 12:06 56.29885 10.82377 19320 ft 413 kts 135°
2026-04-26 12:06 56.27870 10.86091 19295 ft 412 kts 135°
2026-04-26 12:06 56.25881 10.89751 19042 ft 406 kts 135°
2026-04-26 12:07 56.23918 10.93355 18799 ft 400 kts 135°
2026-04-26 12:07 56.22045 10.96789 18554 ft 393 kts 135°
2026-04-26 12:07 56.20192 11.00179 18294 ft 388 kts 135°
2026-04-26 12:07 56.18344 11.03554 17993 ft 384 kts 135°
2026-04-26 12:08 56.16638 11.06665 17673 ft 380 kts 135°
2026-04-26 12:08 56.14793 11.10025 17272 ft 378 kts 135°
2026-04-26 12:08 56.12952 11.13373 16884 ft 375 kts 135°
2026-04-26 12:08 56.11122 11.16697 16498 ft 372 kts 135°
2026-04-26 12:09 56.09306 11.19990 16116 ft 370 kts 135°
2026-04-26 12:09 56.07495 11.23269 15734 ft 368 kts 134°
2026-04-26 12:09 56.05722 11.26475 15342 ft 366 kts 134°
2026-04-26 12:09 56.03936 11.29701 14970 ft 363 kts 134°
2026-04-26 12:10 56.02157 11.32908 14597 ft 361 kts 134°
2026-04-26 12:10 56.00392 11.36087 14220 ft 360 kts 134°
2026-04-26 12:10 55.98637 11.39243 13836 ft 358 kts 134°
2026-04-26 12:10 55.96880 11.42399 13411 ft 357 kts 134°
2026-04-26 12:11 55.95132 11.45536 13015 ft 355 kts 134°
2026-04-26 12:11 55.93389 11.48658 12631 ft 353 kts 134°
2026-04-26 12:11 55.91680 11.51714 12242 ft 351 kts 134°
2026-04-26 12:11 55.89961 11.54786 11870 ft 348 kts 134°
2026-04-26 12:12 55.88254 11.57831 11499 ft 346 kts 134°
2026-04-26 12:12 55.86557 11.60854 11139 ft 344 kts 134°
2026-04-26 12:12 55.84870 11.63856 10779 ft 341 kts 134°
2026-04-26 12:12 55.83772 11.65808 10672 ft 330 kts 134°
2026-04-26 12:13 55.81646 11.69579 10483 ft 318 kts 134°
2026-04-26 12:13 55.80082 11.72352 10336 ft 317 kts 134°
2026-04-26 12:13 55.78515 11.75128 10044 ft 319 kts 134°
2026-04-26 12:13 55.76943 11.77909 9718 ft 317 kts 134°
2026-04-26 12:14 55.75383 11.80665 9407 ft 314 kts 134°
2026-04-26 12:14 55.73839 11.83389 9101 ft 311 kts 134°
2026-04-26 12:14 55.72328 11.86051 8833 ft 307 kts 134°
2026-04-26 12:14 55.70816 11.88713 8528 ft 305 kts 134°
2026-04-26 12:15 55.69319 11.91345 8351 ft 299 kts 135°
2026-04-26 12:15 55.67834 11.93956 8016 ft 305 kts 135°
2026-04-26 12:15 55.66335 11.96586 7697 ft 297 kts 135°
2026-04-26 12:15 55.64886 11.99124 7386 ft 289 kts 135°
2026-04-26 12:16 55.63517 12.01519 7134 ft 287 kts 135°
2026-04-26 12:16 55.62117 12.03969 6852 ft 285 kts 135°
2026-04-26 12:16 55.60706 12.06434 6574 ft 283 kts 135°
2026-04-26 12:16 55.59311 12.08870 6288 ft 281 kts 134°
2026-04-26 12:17 55.58013 12.11431 6011 ft 278 kts 130°
2026-04-26 12:17 55.56764 12.14040 5568 ft 277 kts 130°
2026-04-26 12:17 55.55525 12.16657 5131 ft 273 kts 130°
2026-04-26 12:17 55.54333 12.19200 4819 ft 264 kts 130°
2026-04-26 12:18 55.53207 12.21609 4557 ft 253 kts 130°
2026-04-26 12:18 55.52096 12.23989 4256 ft 250 kts 130°
2026-04-26 12:18 55.50982 12.26376 3950 ft 253 kts 130°
2026-04-26 12:18 55.49864 12.28784 3625 ft 253 kts 130°
2026-04-26 12:19 55.48756 12.31171 3316 ft 249 kts 128°
2026-04-26 12:19 55.48016 12.33849 2996 ft 245 kts 98°
2026-04-26 12:19 55.48122 12.36728 2809 ft 228 kts 72°
2026-04-26 12:19 55.48543 12.39360 2701 ft 221 kts 70°
2026-04-26 12:20 55.48972 12.41950 2597 ft 219 kts 70°
2026-04-26 12:20 55.49408 12.44461 2479 ft 208 kts 66°
2026-04-26 12:20 55.50190 12.46395 2344 ft 185 kts 35°
2026-04-26 12:20 55.51172 12.47843 2121 ft 183 kts 38°
2026-04-26 12:21 55.52076 12.49297 1894 ft 173 kts 37°
2026-04-26 12:21 55.52970 12.50687 1672 ft 171 kts 37°
2026-04-26 12:21 55.53862 12.52068 1448 ft 169 kts 37°
2026-04-26 12:21 55.54730 12.53412 1246 ft 159 kts 36°
2026-04-26 12:22 55.55519 12.54634 1020 ft 148 kts 37°
2026-04-26 12:22 55.56280 12.55807 836 ft 142 kts 38°
2026-04-26 12:22 55.57019 12.56944 614 ft 142 kts 39°
2026-04-26 12:22 55.57742 12.58074 445 ft 137 kts 39°
2026-04-26 12:23 55.58456 12.59165 280 ft 132 kts 40°
2026-04-26 12:23 55.59146 12.60232 73 ft 132 kts 40°
2026-04-26 12:23 55.59812 12.61262 23 ft 113 kts 41°
2026-04-26 12:23 55.60305 12.62026 23 ft 82 kts 41°
2026-04-26 12:24 55.60686 12.62610 26 ft 60 kts 40°
2026-04-26 12:24 55.60897 12.62817 24 ft 25 kts 14°
2026-04-26 12:24 55.61061 12.62898 23 ft 23 kts 17°
2026-04-26 12:25 55.61362 12.63280 23 ft 31 kts 41°
2026-04-26 12:25 55.61520 12.63524 23 ft 29 kts 41°
2026-04-26 12:25 55.61669 12.63754 23 ft 27 kts 41°
2026-04-26 12:25 55.61808 12.63966 23 ft 26 kts 41°
2026-04-26 12:26 55.61958 12.64137 23 ft 26 kts 25°
2026-04-26 12:26 55.62107 12.64263 23 ft 19 kts 25°
2026-04-26 12:26 55.62200 12.64340 21 ft 10 kts 24°
2026-04-26 12:26 55.62269 12.64386 21 ft 14 kts 16°
2026-04-26 12:27 55.62399 12.64447 23 ft 23 kts 15°
2026-04-26 12:27 55.62510 12.64437 23 ft 14 kts 293°
2026-04-26 12:27 55.62564 12.64297 23 ft 13 kts 304°
2026-04-26 12:27 55.62616 12.64160 23 ft 14 kts 303°
2026-04-26 12:28 55.62669 12.64014 26 ft 13 kts 303°
2026-04-26 12:28 55.62709 12.63998 23 ft 10 kts 33°
2026-04-26 12:28 55.62744 12.64038 24 ft 1 kts 33°
2026-04-26 12:28 55.62744 12.64039 23 ft 0 kts 33°